Content
SEND FEEDBACK

Daily
Averages
Monthly
Summary
United States of America

BAYOU LA BATRE, ALABAMA


Home > North America > United States > Alabama
Elevation: 0 meters     Latitude: 30 23N     Longitude: 088 14W

WEATHER
 
SELECT A DAY
Number of Records: 195,805;   Date Range: 8/14/97 - 8/12/14
 
SHARE

PRINT THIS DATA

[ ← Previous Day ]
WEATHER ALMANAC - 12 FEBRUARY, 2014
[ Next Day → ]
[ °F ]   °C
Weather ElementAverageHighLow
Temperature7 °C9 °C (11:48 am)4.4 °C (1:39 am)
Dewpoint6.2 °C8.3 °C (11:25 am)2.8 °C (11:53 pm)
Humidity94.7 %100 % (2:48 am)86 % (4:53 pm)
Barometer1012.5 hPa1016.6 hPa (2:12 am)1009.8 hPa (1:53 pm)
Wind Speed16.6 km/h35.2 km/h (2:16 am)
Wind Gust44.4 km/h (2:16 am)
Weather ElementAverage
Visibility9.7 km
Wind DirectionSSW (191.6 °)

Weather ElementTotal
Precipitation77.72 mm
Heating Degree Days11.7 (Base 18.3)
Averaged from 45 records on 12 February, 2014
WEATHER CONDITIONS BREAKOUT
WIND DIRECTION BREAKOUT
WEATHER BY HOUR - 12 FEBRUARY, 2014
[ °F ]   °C
Local TimeTemperatureDewpointHumidityBarometerVisibilityWind DirectionWind SpeedGust SpeedPrecipitationEventsConditions
1:39 AM4.4 °C3.9 °C97 %1014.6 hPa16.1 kmNNE (20°)14.8 km/h31.5 km/h0 mmRainLight Rain
1:53 AM4.4 °C3.9 °C97 %1014.2 hPa9.7 kmNNE (20°)22.2 km/h0.51 mmRainLight Rain
2:12 AM5 °C4.4 °C96 %1016.6 hPa6.4 kmNW (320°)20.4 km/h38.9 km/h2.03 mmRainRain
2:16 AM5 °C4.4 °C96 %1012.9 hPa3.2 kmNE (50°)35.2 km/h44.4 km/h5.33 mmRainHeavy Rain
2:23 AM5 °C4.4 °C96 %1014.2 hPa2.9 kmNorth (350°)27.8 km/h44.4 km/h6.35 mmRainHeavy Rain
2:26 AM5.6 °C5 °C96 %1014.6 hPa4.8 kmNNW (340°)29.6 km/h6.6 mmRainRain
2:36 AM5.6 °C5 °C96 %1014.6 hPa2.9 kmNE (40°)27.8 km/h40.7 km/h13.21 mmRainHeavy Rain
2:48 AM6 °C6 °C100 %1013.2 hPa2.9 kmNE (50°)24.1 km/h44.4 km/h18.8 mmRainHeavy Rain
2:53 AM6.1 °C5.6 °C97 %1013.9 hPa4 kmENE (60°)20.4 km/h44.4 km/h19.3 mmRainHeavy Rain
3:00 AM6.7 °C5.6 °C93 %1012.5 hPa6.4 kmEast (80°)27.8 km/h37 km/h0.76 mmRainHeavy Rain
3:53 AM7.2 °C6.7 °C97 %1013.2 hPa12.9 kmNE (40°)13 km/h3.81 mmRainRain
4:05 AM7.2 °C6.7 °C97 %1012.9 hPa11.3 kmNorth (350°)14.8 km/h0.25 mmRainLight Rain
4:53 AM7.2 °C6.7 °C97 %1012.9 hPa16.1 kmNNE (30°)13 km/h0.76 mmOvercast
5:53 AM7.2 °C6.7 °C97 %1012.5 hPa16.1 kmNorth (360°)14.8 km/h0 mmOvercast
6:53 AM7.2 °C6.7 °C97 %1013.2 hPa16.1 kmNorth (10°)11.1 km/hOvercast
7:53 AM7.2 °C6.7 °C97 %1013.5 hPa9.7 kmNorth (10°)14.8 km/hOvercast
8:46 AM7.2 °C6.7 °C97 %1012.9 hPa4 kmNorth (10°)14.8 km/hOvercast
8:53 AM7.2 °C7.2 °C100 %1013.2 hPa4 kmNorth (10°)13 km/hOvercast
9:30 AM7.8 °C7.2 °C96 %1013.5 hPa2.9 kmNorth (10°)11.1 km/hOvercast
9:53 AM7.8 °C7.2 °C96 %1013.9 hPa2.4 kmNorth (10°)11.1 km/hOvercast
10:36 AM8.3 °C7.8 °C97 %1012.5 hPa4 kmNNE (20°)14.8 km/h0 mmRainLight Rain
10:43 AM8.3 °C7.8 °C97 %1012.5 hPa6.4 kmNNE (20°)14.8 km/h0 mmOvercast
10:53 AM8.3 °C7.8 °C97 %1012.5 hPa4.8 kmNorth (10°)14.8 km/h0 mmOvercast
11:06 AM8.3 °C7.8 °C97 %1011.9 hPa2.9 kmNNE (20°)14.8 km/h0 mmRainLight Rain
11:25 AM8.9 °C8.3 °C96 %1012.2 hPa4 kmNorth (360°)16.7 km/h0 mmRainLight Rain
11:34 AM8.9 °C7.8 °C93 %1012.2 hPa4.8 kmNorth (10°)14.8 km/h0 mmOvercast
11:48 AM9 °C8 °C93 %1011.9 hPa3.2 kmNorth (10°)13 km/h0 mmOvercast
11:53 AM8.9 °C8.3 °C96 %1012.2 hPa2.4 kmNorth (360°)16.7 km/h0 mmOvercast
12:22 PM8.9 °C8.3 °C96 %1011.5 hPa4.8 kmNorth (350°)18.5 km/h0 mmOvercast
12:53 PM8.9 °C7.8 °C93 %1011.2 hPa6.4 kmNNW (330°)13 km/h0 mmOvercast
1:53 PM8.3 °C7.2 °C93 %1009.8 hPa14.5 kmNNW (340°)18.5 km/h27.8 km/hOvercast
2:53 PM7.8 °C6.7 °C93 %1010.5 hPa16.1 kmNNW (330°)14.8 km/h29.6 km/hOvercast
3:29 PM7.8 °C6.7 °C93 %1010.2 hPa16.1 kmNNW (340°)14.8 km/hOvercast
3:36 PM7.8 °C6.7 °C93 %1010.2 hPa16.1 kmNNW (330°)14.8 km/hOvercast
3:53 PM7.2 °C6.1 °C93 %1010.5 hPa16.1 kmNorth (350°)16.7 km/h29.6 km/hOvercast
4:49 PM8 °C6 °C87 %1010.5 hPa16.1 kmNorth (350°)16.7 km/hOvercast
4:53 PM7.8 °C5.6 °C86 %1010.8 hPa16.1 kmNNW (340°)14.8 km/hOvercast
5:31 PM6.7 °C5.6 °C93 %1011.2 hPa14.5 kmNW (310°)14.8 km/hOvercast
5:53 PM6.7 °C5.6 °C93 %1011.2 hPa16.1 kmNNW (330°)13 km/hOvercast
6:53 PM6.7 °C5.6 °C93 %1011.9 hPa16.1 kmNNW (330°)16.7 km/hOvercast
7:53 PM6.1 °C5 °C93 %1012.2 hPa16.1 kmNNW (330°)11.1 km/hOvercast
8:53 PM5.6 °C4.4 °C92 %1012.9 hPa16.1 kmNW (320°)14.8 km/h27.8 km/hOvercast
9:53 PM5.6 °C3.9 °C89 %1013.2 hPa16.1 kmNW (320°)7.4 km/hOvercast
10:53 PM4.4 °C3.3 °C93 %1013.5 hPa16.1 kmNW (320°)14.8 km/hOvercast
11:53 PM4.4 °C2.8 °C89 %1013.9 hPa16.1 kmNW (320°)11.1 km/hOvercast
Hourly data recorded from KPQL, located 0 kilometers away from Bayou La Batre, Alabama







STORIES FROM OUR PARTNERS